Date String (YYYY-MM-DD hh:mm:ss) UTC,Instrument flags,Ambient pressure (hPa),Sample flow (lpm),Bypass flow (lpm),Sample temperature (°C),Ambient temperature (°C),ASC tube jacket temperature (°C),LED temperature (°C),Box temperature (°C),Sample RH (%),Span deviation,Mass concentration (μg/m³),Mass concentration (μg/m³),Mass concentration (μg/m³)
DateTimeUTC,F1_M11,P_M11,Q1_M11,Q2_M11,T1_M11,T2_M11,T3_M11,T4_M11,T5_M11,U1_M11,ZSPAN_M11,X0_M11,X2_M11,X1_M11
2022-10-05 18:00:00,,0834.0,4.99,0.00,26.5,25.4,00.0,35.2,28.4,23.6,0000.0,0007.48,0004.44,0004.21
2022-10-05 18:01:00,,0833.9,5.00,0.00,26.5,25.4,00.0,35.2,28.4,23.8,0000.0,0007.47,0004.43,0004.22
2022-10-05 18:02:00,,0833.9,4.99,0.00,26.5,25.0,00.0,35.2,28.3,23.6,0000.0,0007.50,0004.44,0004.22
2022-10-05 18:03:00,,0833.9,5.00,0.00,26.5,25.0,00.0,35.2,28.3,23.6,0000.0,0007.47,0004.44,0004.22
2022-10-05 18:04:00,,0833.9,5.00,0.00,26.5,25.3,00.0,35.2,28.5,23.8,0000.0,0007.38,0004.46,0004.24
2022-10-05 18:05:00,,0833.9,5.00,0.00,26.6,25.6,00.0,35.3,28.6,23.6,0000.0,0007.43,0004.49,0004.26
2022-10-05 18:06:00,,0833.9,5.01,0.00,26.7,25.9,00.0,35.3,28.7,23.9,0000.0,0007.48,0004.51,0004.27
2022-10-05 18:07:00,,0833.9,4.99,0.00,26.8,26.1,00.0,35.3,28.8,24.2,0000.0,0007.59,0004.48,0004.27
2022-10-05 18:08:00,,0833.9,5.00,0.00,26.8,26.3,00.0,35.4,28.9,23.4,0000.0,0007.84,0004.47,0004.28
2022-10-05 18:09:00,,0833.9,5.01,0.00,26.9,26.4,00.0,35.4,29.0,23.2,0000.0,0007.92,0004.53,0004.31
2022-10-05 18:10:00,,0833.8,4.99,0.00,27.0,26.5,00.0,35.5,29.1,23.1,0000.0,0007.95,0004.55,0004.32
2022-10-05 18:11:00,,0833.9,5.01,0.00,27.1,26.6,00.0,35.5,29.1,22.8,0000.0,0007.58,0004.56,0004.32
2022-10-05 18:12:00,,0833.8,5.00,0.00,27.1,26.7,00.0,35.6,29.2,22.8,0000.0,0007.92,0004.58,0004.32
2022-10-05 18:13:00,,0833.8,5.00,0.00,27.2,26.7,00.0,35.6,29.3,22.5,0000.0,0008.26,0004.55,0004.29
2022-10-05 18:14:00,,0833.8,4.99,0.00,27.2,26.8,00.0,35.7,29.3,22.3,0000.0,0008.27,0004.52,0004.26
2022-10-05 18:15:00,,0833.9,5.00,0.00,27.3,26.8,00.0,35.7,29.4,21.9,0000.0,0008.32,0004.50,0004.24
2022-10-05 18:16:00,,0833.9,5.01,0.00,27.4,26.9,00.0,35.7,29.4,21.9,0000.0,0008.42,0004.49,0004.21
2022-10-05 18:17:00,,0833.8,5.01,0.00,27.4,26.9,00.0,35.8,29.5,21.5,0000.0,0008.45,0004.46,0004.18
2022-10-05 18:18:00,,0833.8,4.99,0.00,27.5,27.0,00.0,35.8,29.5,21.4,0000.0,0008.36,0004.44,0004.17
2022-10-05 18:19:00,,0833.8,4.99,0.00,27.5,27.1,00.0,35.9,29.6,21.4,0000.0,0007.97,0004.43,0004.15
2022-10-05 18:20:00,,0833.8,5.00,0.00,27.6,27.1,00.0,35.9,29.6,21.1,0000.0,0007.92,0004.40,0004.12
2022-10-05 18:21:00,,0833.8,5.00,0.00,27.6,27.2,00.0,36.0,29.7,21.1,0000.0,0007.85,0004.36,0004.10
2022-10-05 18:22:00,,0833.8,5.01,0.00,27.7,27.3,00.0,36.0,29.8,21.1,0000.0,0007.78,0004.33,0004.09
2022-10-05 18:23:00,,0833.8,5.01,0.00,27.8,27.3,00.0,36.1,29.8,20.9,0000.0,0007.39,0004.27,0004.06
2022-10-05 18:24:00,,0833.7,4.98,0.00,27.8,27.4,00.0,36.2,29.9,21.0,0000.0,0007.02,0004.22,0004.02
2022-10-05 18:25:00,,0833.7,5.01,0.00,27.9,27.5,00.0,36.2,29.9,21.2,0000.0,0007.63,0004.19,0004.00
2022-10-05 18:26:00,,0833.6,5.00,0.00,27.9,27.5,00.0,36.3,30.0,21.3,0000.0,0007.50,0004.15,0003.97
2022-10-05 18:27:00,,0833.7,5.00,0.00,28.0,27.6,00.0,36.3,30.0,20.8,0000.0,0007.41,0004.11,0003.95
2022-10-05 18:28:00,,0833.7,5.00,0.00,28.0,27.6,00.0,36.4,30.1,20.8,0000.0,0007.32,0004.07,0003.92
2022-10-05 18:29:00,,0833.7,5.00,0.00,28.1,27.6,00.0,36.4,30.1,21.0,0000.0,0007.84,0004.02,0003.87
2022-10-05 18:30:00,,0833.7,5.00,0.00,28.1,27.7,00.0,36.5,30.2,20.5,0000.0,0007.79,0003.97,0003.84
2022-10-05 18:31:00,,0833.7,5.00,0.00,28.2,27.7,00.0,36.5,30.2,20.6,0000.0,0007.76,0003.94,0003.81
2022-10-05 18:32:00,,0833.7,5.00,0.00,28.2,27.8,00.0,36.6,30.3,20.3,0000.0,0007.78,0003.92,0003.78
2022-10-05 18:33:00,,0833.7,4.99,0.00,28.3,27.8,00.0,36.6,30.3,20.0,0000.0,0007.74,0003.89,0003.73
2022-10-05 18:34:00,,0833.7,5.00,0.00,28.3,27.8,00.0,36.7,30.4,19.8,0000.0,0007.73,0003.87,0003.70
2022-10-05 18:35:00,,0833.6,5.00,0.00,28.4,27.9,00.0,36.7,30.4,19.3,0000.0,0007.29,0003.86,0003.68
2022-10-05 18:36:00,,0833.7,5.00,0.00,28.4,27.9,00.0,36.8,30.4,19.0,0000.0,0006.80,0003.83,0003.64
2022-10-05 18:37:00,,0833.7,5.00,0.00,28.4,27.9,00.0,36.8,30.5,19.5,0000.0,0007.39,0003.81,0003.62
2022-10-05 18:38:00,,0833.7,5.00,0.00,28.5,27.9,00.0,36.9,30.5,19.4,0000.0,0007.57,0003.79,0003.61
2022-10-05 18:39:00,,0833.7,4.99,0.00,28.5,27.9,00.0,36.9,30.5,19.5,0000.0,0007.38,0003.78,0003.59
2022-10-05 18:40:00,,0833.7,5.00,0.00,28.5,27.9,00.0,36.9,30.5,19.5,0000.0,0006.52,0003.78,0003.59
2022-10-05 18:41:00,,0833.7,5.00,0.00,28.6,27.9,00.0,37.0,30.6,19.4,0000.0,0006.56,0003.78,0003.59
2022-10-05 18:42:00,,0833.7,5.00,0.00,28.6,28.0,00.0,37.0,30.6,19.5,0000.0,0006.62,0003.79,0003.58
2022-10-05 18:43:00,,0833.7,5.00,0.00,28.6,28.0,00.0,37.1,30.6,19.6,0000.0,0006.48,0003.76,0003.57
2022-10-05 18:44:00,,0833.7,5.00,0.00,28.7,28.0,00.0,37.1,30.7,19.9,0000.0,0006.39,0003.73,0003.56
2022-10-05 18:45:00,,0833.7,5.00,0.00,28.7,28.1,00.0,37.1,30.7,19.6,0000.0,0006.41,0003.73,0003.56
2022-10-05 18:46:00,,0833.7,5.01,0.00,28.7,28.1,00.0,37.2,30.7,19.5,0000.0,0006.44,0003.74,0003.56
2022-10-05 18:47:00,,0833.6,5.00,0.00,28.8,28.2,00.0,37.2,30.8,19.1,0000.0,0006.21,0003.73,0003.57
2022-10-05 18:48:00,,0833.7,4.99,0.00,28.8,28.1,00.0,37.3,30.8,18.9,0000.0,0005.49,0003.73,0003.57
2022-10-05 18:49:00,,0833.6,5.00,0.00,28.8,28.2,00.0,37.3,30.8,19.2,0000.0,0005.05,0003.71,0003.55
2022-10-05 18:50:00,,0833.6,4.99,0.00,28.9,28.2,00.0,37.3,30.8,19.0,0000.0,0005.12,0003.72,0003.54
2022-10-05 18:51:00,,0833.6,5.00,0.00,28.9,28.2,00.0,37.4,30.9,18.8,0000.0,0005.90,0003.72,0003.54
2022-10-05 18:52:00,,0833.6,5.00,0.00,28.9,28.2,00.0,37.4,30.9,19.0,0000.0,0006.09,0003.69,0003.52
2022-10-05 18:53:00,,0833.6,4.99,0.00,28.9,28.2,00.0,37.4,30.9,18.9,0000.0,0006.08,0003.65,0003.51
2022-10-05 18:54:00,,0833.6,5.01,0.00,29.0,28.3,00.0,37.5,30.9,18.7,0000.0,0006.13,0003.66,0003.51
2022-10-05 18:55:00,,0833.6,5.01,0.00,29.0,28.3,00.0,37.5,31.0,19.0,0000.0,0006.18,0003.68,0003.51
2022-10-05 18:56:00,,0833.6,4.99,0.00,29.0,28.3,00.0,37.5,31.0,18.6,0000.0,0006.37,0003.71,0003.51
2022-10-05 18:57:00,,0833.6,5.00,0.00,29.1,28.4,00.0,37.6,31.0,18.1,0000.0,0006.49,0003.73,0003.51
2022-10-05 18:58:00,,0833.6,5.00,0.00,29.1,28.4,00.0,37.6,31.1,18.1,0000.0,0006.57,0003.74,0003.50
2022-10-05 18:59:00,,0833.6,5.02,0.00,29.1,28.4,00.0,37.6,31.1,18.4,0000.0,0006.70,0003.76,0003.50
